Regional Weather Roundup
Issued by NWS

Home | Current Version | Previous Version | Graphics & Text | Print | Product List | Glossary On
Versions: 1 2 3 4 5 6 7 8 9 10 11 12 13 14 15 16 17 18 19 20 21 22 23 24 25 26 27 28 29 30 31 32 33 34 35 36 37 38 39 40 41 42 43 44 45 46 47 48 49 50
000
ASUS43 KLMK 200910
RWRKY
KENTUCKY REGIONAL WEATHER ROUNDUP
NATIONAL WEATHER SERVICE LOUISVILLE KY
500 AM EDT SUN APR 20 2014

NOTE "FAIR" INDICATES FEW OR NO CLOUDS BELOW 12,000 FEET
WITH NO SIGNIFICANT WEATHER AND/OR OBSTRUCTIONS TO VISIBILITY.

KYZ001>023-026-027-061>063-070>075-201000-
WESTERN AND SOUTH CENTRAL KENTUCKY

CITY           SKY/WX    TMP DP  RH WIND       PRES   REMARKS
PADUCAH        CLEAR     50  43  77 CALM      30.18R
HENDERSON      CLEAR     46  43  87 NE3       30.20R
OWENSBORO      PTCLDY    52  42  68 NE3       30.21R
HOPKINSVILLE   PTCLDY    48  41  76 NE3       30.18S
BOWLING GREEN  CLEAR     46  39  76 CALM      30.20R
GLASGOW        CLEAR     49  37  62 CALM      30.19R
$$

KYZ024-025-028>034-038-045-046-053-201000-
NORTH CENTRAL KENTUCKY

CITY           SKY/WX    TMP DP  RH WIND       PRES   REMARKS
LOUISVILLE/SDF PTCLDY    51  38  60 N6        30.22R
LOUISVILLE/LOU CLEAR     52  38  58 NW6       30.22R
FORT KNOX      CLEAR     45  37  73 N5        30.20S
$$

KYZ035>037-039>044-047>052-055>060-089>105-201000-
NORTHEAST KENTUCKY

CITY           SKY/WX    TMP DP  RH WIND       PRES   REMARKS
LEXINGTON      CLEAR     47  36  65 NE5       30.21R
COVINGTON      PTCLDY    46  34  62 N7        30.24R
FRANKFORT      CLEAR     47  36  65 N3        30.21R
$$

KYZ054-064>069-076>088-106>120-201000-
SOUTHEAST KENTUCKY

CITY           SKY/WX    TMP DP  RH WIND       PRES   REMARKS
JACKSON        MOCLDY    54  30  40 CALM      30.21R
LONDON         PTCLDY    50  36  58 CALM      30.20R
SOMERSET       CLEAR     45  37  76 CALM      30.22R
MIDDLESBORO    CLOUDY    44  42  90 CALM      30.23R
MONTICELLO     SUNNY     39  37  92 CALM      30.22R
$$




USA.gov is the U.S. government's official web portal to all federal, state and local government web resources and services.